TimeEST,TemperatureF,Dew PointF,Humidity,Sea Level PressureIn,VisibilityMPH,Wind Direction,Wind SpeedMPH,Gust SpeedMPH,PrecipitationIn,Events,Conditions,WindDirDegrees,DateUTC
12:15 AM,45.5,44.4,96,30.16,10.0,Calm,Calm,-,N/A,,Overcast,0,2013-12-21 05:15:00
12:35 AM,46.2,44.8,95,30.16,10.0,Calm,Calm,-,N/A,,Overcast,0,2013-12-21 05:35:00
12:55 AM,46.6,45.3,95,30.15,10.0,Calm,Calm,-,N/A,,Overcast,0,2013-12-21 05:55:00
1:15 AM,45.9,43.9,93,30.14,10.0,Calm,Calm,-,N/A,,Scattered Clouds,0,2013-12-21 06:15:00
1:35 AM,45.7,43.9,93,30.14,10.0,Calm,Calm,-,N/A,,Clear,0,2013-12-21 06:35:00
1:55 AM,45.7,44.1,94,30.15,10.0,Calm,Calm,-,N/A,,Clear,0,2013-12-21 06:55:00
2:15 AM,45.5,43.7,93,30.14,10.0,Calm,Calm,-,N/A,,Clear,0,2013-12-21 07:15:00
2:35 AM,44.8,43.5,95,30.14,10.0,Calm,Calm,-,N/A,,Scattered Clouds,0,2013-12-21 07:35:00
2:55 AM,44.8,43.7,96,30.14,10.0,Calm,Calm,-,N/A,,Mostly Cloudy,0,2013-12-21 07:55:00
3:15 AM,44.8,43.7,96,30.13,10.0,Calm,Calm,-,N/A,,Mostly Cloudy,0,2013-12-21 08:15:00
3:35 AM,45.0,43.9,96,30.14,10.0,Calm,Calm,-,N/A,,Mostly Cloudy,0,2013-12-21 08:35:00
3:55 AM,44.8,43.7,96,30.13,10.0,Calm,Calm,-,N/A,,Scattered Clouds,0,2013-12-21 08:55:00
4:15 AM,44.1,42.8,95,30.13,10.0,Calm,Calm,-,N/A,,Clear,0,2013-12-21 09:15:00
4:35 AM,43.0,42.1,97,30.13,7.0,Calm,Calm,-,N/A,,Clear,0,2013-12-21 09:35:00
4:55 AM,42.4,41.4,96,30.13,10.0,Calm,Calm,-,N/A,,Clear,0,2013-12-21 09:55:00
5:15 AM,41.9,41.0,97,30.13,7.0,Calm,Calm,-,N/A,,Clear,0,2013-12-21 10:15:00
5:35 AM,42.1,41.2,97,30.13,10.0,Calm,Calm,-,N/A,,Clear,0,2013-12-21 10:35:00
5:55 AM,41.0,40.3,97,30.14,3.0,Calm,Calm,-,N/A,,Clear,0,2013-12-21 10:55:00
6:15 AM,41.9,41.0,97,30.14,10.0,Calm,Calm,-,N/A,,Clear,0,2013-12-21 11:15:00
6:35 AM,40.5,39.6,97,30.15,10.0,Calm,Calm,-,N/A,,Clear,0,2013-12-21 11:35:00
6:55 AM,41.0,40.1,97,30.14,10.0,Calm,Calm,-,N/A,,Clear,0,2013-12-21 11:55:00
7:15 AM,40.6,39.7,97,30.15,10.0,Calm,Calm,-,N/A,,Clear,0,2013-12-21 12:15:00
7:35 AM,41.2,40.1,96,30.15,10.0,Calm,Calm,-,N/A,,Clear,0,2013-12-21 12:35:00
7:55 AM,41.0,39.9,96,30.14,10.0,Calm,Calm,-,N/A,,Clear,0,2013-12-21 12:55:00
8:15 AM,43.2,42.3,97,30.14,10.0,Calm,Calm,-,N/A,,Clear,0,2013-12-21 13:15:00
8:35 AM,44.6,43.7,97,30.15,10.0,Calm,Calm,-,N/A,,Clear,0,2013-12-21 13:35:00
8:55 AM,46.8,46.0,97,30.15,7.0,Calm,Calm,-,N/A,,Clear,0,2013-12-21 13:55:00
9:15 AM,49.3,48.2,96,30.15,7.0,Calm,Calm,-,N/A,,Clear,0,2013-12-21 14:15:00
9:35 AM,50.7,48.7,93,30.16,7.0,North,3.5,-,N/A,,Clear,350,2013-12-21 14:35:00
9:55 AM,51.3,49.3,93,30.16,7.0,Calm,Calm,-,N/A,,Clear,0,2013-12-21 14:55:00
10:15 AM,53.1,50.2,90,30.16,10.0,North,3.5,-,N/A,,Clear,360,2013-12-21 15:15:00
10:35 AM,55.0,51.8,89,30.15,10.0,Calm,Calm,-,N/A,,Clear,0,2013-12-21 15:35:00
10:55 AM,57.9,52.9,83,30.16,10.0,Calm,Calm,-,N/A,,Clear,0,2013-12-21 15:55:00
11:15 AM,60.6,54.1,79,30.14,10.0,Calm,Calm,-,N/A,,Clear,0,2013-12-21 16:15:00
11:35 AM,63.3,55.2,75,30.14,10.0,Calm,Calm,-,N/A,,Scattered Clouds,0,2013-12-21 16:35:00
11:55 AM,67.1,58.3,73,30.13,10.0,SSW,8.1,-,N/A,,Scattered Clouds,200,2013-12-21 16:55:00
12:15 PM,68.4,59.0,72,30.12,10.0,South,9.2,-,N/A,,Clear,180,2013-12-21 17:15:00
12:35 PM,70.7,59.5,68,30.10,10.0,South,8.1,-,N/A,,Clear,190,2013-12-21 17:35:00
12:55 PM,70.9,59.4,67,30.09,10.0,SSW,8.1,-,N/A,,Clear,200,2013-12-21 17:55:00
1:15 PM,71.8,59.0,64,30.09,10.0,SSW,10.4,-,N/A,,Clear,210,2013-12-21 18:15:00
1:35 PM,73.4,58.1,59,30.08,10.0,SSW,10.4,16.1,N/A,,Clear,200,2013-12-21 18:35:00
1:55 PM,73.6,58.3,59,30.07,10.0,South,10.4,16.1,N/A,,Clear,180,2013-12-21 18:55:00
2:15 PM,72.7,58.8,62,30.07,10.0,South,10.4,-,N/A,,Clear,190,2013-12-21 19:15:00
2:35 PM,71.6,59.2,65,30.07,10.0,South,9.2,-,N/A,,Mostly Cloudy,180,2013-12-21 19:35:00
2:55 PM,71.2,59.9,67,30.07,10.0,South,5.8,-,N/A,,Overcast,170,2013-12-21 19:55:00
3:15 PM,72.0,60.1,66,30.07,10.0,SSE,4.6,-,N/A,,Scattered Clouds,160,2013-12-21 20:15:00
3:35 PM,72.0,60.8,68,30.06,10.0,Calm,Calm,-,N/A,,Scattered Clouds,0,2013-12-21 20:35:00
3:55 PM,71.6,61.0,69,30.06,10.0,Calm,Calm,-,N/A,,Scattered Clouds,0,2013-12-21 20:55:00
4:15 PM,72.0,60.3,67,30.06,10.0,South,4.6,-,N/A,,Clear,170,2013-12-21 21:15:00
4:35 PM,71.2,60.3,68,30.06,10.0,South,6.9,-,N/A,,Clear,180,2013-12-21 21:35:00
4:55 PM,70.3,60.8,72,30.06,10.0,South,4.6,-,N/A,,Clear,170,2013-12-21 21:55:00
5:15 PM,69.3,61.2,75,30.06,10.0,SSE,4.6,-,N/A,,Clear,160,2013-12-21 22:15:00
5:35 PM,68.0,61.5,80,30.06,10.0,SSE,3.5,-,N/A,,Clear,160,2013-12-21 22:35:00
5:55 PM,66.7,61.9,84,30.06,10.0,SSE,3.5,-,N/A,,Mostly Cloudy,160,2013-12-21 22:55:00
6:15 PM,66.2,61.7,85,30.06,10.0,South,4.6,-,N/A,,Scattered Clouds,170,2013-12-21 23:15:00
6:35 PM,66.2,61.9,86,30.06,10.0,South,3.5,-,N/A,,Clear,170,2013-12-21 23:35:00
6:55 PM,65.5,62.4,90,30.07,10.0,South,4.6,-,N/A,,Clear,170,2013-12-21 23:55:00
7:15 PM,66.0,62.6,89,30.07,10.0,SSE,4.6,-,N/A,,Clear,160,2013-12-22 00:15:00
7:35 PM,66.4,63.0,89,30.07,10.0,South,5.8,-,N/A,,Clear,180,2013-12-22 00:35:00
7:55 PM,67.1,63.5,88,30.07,10.0,South,9.2,-,N/A,,Scattered Clouds,180,2013-12-22 00:55:00
8:15 PM,68.2,64.4,88,30.07,10.0,South,8.1,-,N/A,,Mostly Cloudy,170,2013-12-22 01:15:00
8:35 PM,68.9,64.8,87,30.08,10.0,South,9.2,16.1,N/A,,Mostly Cloudy,170,2013-12-22 01:35:00
8:55 PM,69.4,65.1,86,30.08,10.0,South,10.4,-,N/A,,Overcast,180,2013-12-22 01:55:00
9:15 PM,69.6,65.1,86,30.08,10.0,South,12.7,-,N/A,,Mostly Cloudy,170,2013-12-22 02:15:00
9:35 PM,69.3,65.3,87,30.07,10.0,South,10.4,-,N/A,,Mostly Cloudy,170,2013-12-22 02:35:00
9:55 PM,68.9,65.1,88,30.07,10.0,South,9.2,-,N/A,,Mostly Cloudy,170,2013-12-22 02:55:00
10:15 PM,68.9,65.3,88,30.06,10.0,South,10.4,16.1,N/A,,Scattered Clouds,170,2013-12-22 03:15:00
10:35 PM,69.1,65.5,88,30.06,10.0,South,12.7,19.6,N/A,,Scattered Clouds,170,2013-12-22 03:35:00
10:55 PM,69.8,65.8,87,30.06,10.0,South,11.5,19.6,N/A,,Mostly Cloudy,180,2013-12-22 03:55:00
11:15 PM,70.5,66.2,86,30.06,10.0,South,15.0,20.7,N/A,,Overcast,180,2013-12-22 04:15:00
11:35 PM,70.7,66.2,86,30.06,10.0,South,11.5,17.3,N/A,,Overcast,190,2013-12-22 04:35:00
11:55 PM,70.7,66.2,86,30.06,10.0,South,11.5,17.3,N/A,,Overcast,180,2013-12-22 04:55:00